INTELSAT 33E DEB, 61991

Orbit data source: Space-Track

INTELSAT 33E DEB, 61991 is space debris in GEO originally from a launch on Wed, 24 Aug 2016 UTC launched from the French Guiana (FRGUI). Debris objects in space refer to the collection of defunct objects orbiting the Earth. Examples of debris include non-operational satellites, rocket bodies, and fragments generated from explosions, collisions, or faulty payload assembly.

Not visible in the next 10 days
Identifier
61991, 2016-053H
Orbit
GEO
Country
Flag of UnknownUnknown / ITSO
Related business
Manufacturer
Boeing/ES
Mission
Spacecraft
Bus & Motor
Unknown
Mass
Unknown
Launch date (UTC)
2016-08-24 (9 years ago)
Launch vehicle
Unknown
Launch site
French Guiana (FRGUI)
Object type
Payload
Rocket body
Debris
Shape & HBR
Unknown shape, 1.1 m
Radar Cross Section
RCS unknown

Expand to show TLE details & history
Last TLE update: 2 days ago

TLE from 2 days ago
0 INTELSAT 33E DEB
1 61991U 16053H   25339.59075258  .00000059  00000-0  00000-0 0  9998
2 61991   1.1793  97.7653 0121483 243.1234 114.5541  1.02039546  4212
Epoch: 2025-12-05T14:10Z
TLE epoch observation values (Epoch: 2025-12-05T14:10:41.022Z)
Latitude
-0°
Longitude
169.37844°
Altitude
35,511.95 km
Speed
3.077 km/s
True Right ascension
06h 26m 43s
True Declination
0° 00' 00"
Sunlit
Object was in daylight at epoch
Visualization orbit readout
Latitude
Unknown
Longitude
Unknown
Altitude
Unknown
Speed
Unknown
Apparent Right ascension
Unknown
Apparent Declination
Unknown
Sunlit
N/A
Visualization observer readout
Local Sidereal Time
01:05:57
Azimuth
Unknown
Elevation
Unknown
Doppler factor
Unknown
Orbital elements
Apogee altitude
35,805.587 km
Perigee altitude
34,792.968 km
Semi-major axis
41,677.415 km
Eccentricity
0.01215
Inclination
1.1793°
RAAN
97.7653°
Arg. of periapsis
243.1234°
True anomaly
115.81226°
Mean anomaly
114.5541°
Eccentric anomaly
115.18398°
Mean motion
0.25509 °/min
Orbital period
1,411.27 mins
BSTAR
0
Loading maneuver chart data...
Computing Atmospheric mass density...
Loading historical data...
Loading historical data...
Loading historical data...
Loading historical data...
Loading historical data...
Loading historical data...
Loading historical data...

Documentation

Showing up to 5 results
|